Shawano, WI

4:56 PM CST on February 13, 2016 (GMT -0600)
Shawano

Weather History for KEZS - January, 2014

Change the Weather History Date:

Wednesday, January 22, 2014

  Actual Average (KGRB) Record (KGRB)
Temperature  
Mean Temperature 4 °F 16 °F  
Max Temperature 8 °F 24 °F 48 °F (1964)
Min Temperature 1 °F 9 °F -22 °F (1890)
Degree Days  
Heating Degree Days 60 49  
Month to date heating degree days 1068  
Since 1 July heating degree days 4158  
Cooling Degree Days 0 0  
Month to date cooling degree days 0  
Year to date cooling degree days 0  
Moisture  
Dew Point -4 °F    
Average Humidity 68    
Maximum Humidity 78    
Minimum Humidity 53    
Precipitation  
Precipitation 0.00 in 0.04 in 0.72 in (1933)
Month to date precipitation 0.83  
Year to date precipitation 0.83  
Snow  
Snow 0.00 in 0.40 in 8.20 in (1941)
Month to date snowfall 9.1  
Since 1 July snowfall 26.4  
Snow Depth -    
Sea Level Pressure  
Sea Level Pressure 29.95 in    
Wind  
Wind Speed 4 mph (WNW)    
Max Wind Speed 14 mph    
Max Gust Speed 24 mph    
Visibility 6 miles    
Events Snow    
T = Trace of Precipitation, MM = Missing Value Source: NWS Daily Summary

Daily Weather History Graph

Daily Weather History Graph

Search for Another Location

Airport or City:

Trip Planner

Search our weather history database for the weather conditions in past years. The results will help you decide how hot, cold, wet, or windy it might be!

Date:

Astronomy

Jan. 22, 2014 Rise Set
Actual Time 7:23 AM CST 4:48 PM CST
Civil Twilight 6:51 AM CST 5:20 PM CST
Nautical Twilight 6:15 AM CST 5:56 PM CST
Astronomical Twilight 5:40 AM CST 6:31 PM CST
Moon 11:39 PM CST (1/22) 10:07 AM CST (1/22)
Length of Visible Light 10h 29m
Length of Day
9h 25m
Waning Gibbous, 65% of the Moon is Illuminated
Jan 22
Waning Gibbous
Jan 23
Last Quarter
Jan 30
New
Feb 6
First Quarter
Feb 14
Full

Hourly Weather History & Observations

Time (CST) Temp. Windchill Dew Point Humidity Pressure Visibility Wind Dir Wind Speed Gust Speed Precip Events Conditions
12:15 AM 1.4 °F - -9.2 °F 61% 30.07 in 10.0 mi Calm Calm - N/A   Overcast
12:35 AM 1.4 °F -9.9 °F -8.5 °F 63% 30.08 in 5.0 mi WSW 5.8 mph - N/A   Haze
12:55 AM 1.4 °F - -8.0 °F 65% 30.06 in 10.0 mi Calm Calm - N/A   Overcast
1:15 AM 1.4 °F - -8.1 °F 64% 30.04 in 10.0 mi Calm Calm - N/A   Overcast
1:35 AM 1.2 °F - -8.0 °F 65% 30.03 in 10.0 mi Calm Calm - N/A   Mostly Cloudy
1:55 AM 1.0 °F - -8.1 °F 65% 30.02 in 10.0 mi Calm Calm - N/A   Overcast
2:15 AM 1.2 °F -6.4 °F -8.5 °F 64% 30.01 in 10.0 mi SW 3.5 mph - N/A   Overcast
2:35 AM 1.2 °F - -7.6 °F 67% 30.01 in 5.0 mi Calm Calm - N/A Snow Light Snow
2:55 AM 1.0 °F - -6.9 °F 69% 30.00 in 5.0 mi Calm Calm - N/A   Haze
3:15 AM 1.0 °F - -6.2 °F 72% 30.00 in 2.5 mi Calm Calm - N/A Snow Light Snow
3:55 AM 1.2 °F - -4.9 °F 75% 29.96 in 2.0 mi Calm Calm - N/A Snow Light Snow
4:15 AM 1.4 °F - -4.4 °F 77% 29.95 in 2.5 mi Calm Calm - N/A Snow Light Snow
4:35 AM 1.8 °F -5.8 °F -4.0 °F 77% 29.94 in 1.8 mi South 3.5 mph - N/A Snow Light Snow
4:55 AM 1.9 °F - -4.0 °F 76% 29.94 in 1.8 mi Calm Calm - N/A Snow Light Snow
5:15 AM 1.9 °F - -3.6 °F 77% 29.92 in 1.8 mi Calm Calm - N/A Snow Light Snow
5:35 AM 2.1 °F - -3.5 °F 77% 29.91 in 1.5 mi Calm Calm - N/A Snow Light Snow
5:55 AM 2.1 °F - -3.3 °F 78% 29.91 in 1.2 mi Calm Calm - N/A Snow Light Snow
6:15 AM 2.1 °F - -3.3 °F 78% 29.91 in 1.2 mi Calm Calm - N/A Snow Light Snow
6:35 AM 2.1 °F -5.4 °F -3.3 °F 78% 29.90 in 1.8 mi SSW 3.5 mph - N/A Snow Light Snow
6:55 AM 2.3 °F - -3.1 °F 78% 29.90 in 2.0 mi Calm Calm - N/A Snow Light Snow
7:15 AM 2.3 °F - -3.1 °F 78% 29.89 in 2.5 mi Calm Calm - N/A Snow Light Snow
7:35 AM 2.5 °F - -2.9 °F 78% 29.89 in 2.5 mi Calm Calm - N/A Snow Light Snow
7:55 AM 2.8 °F -4.6 °F -2.6 °F 78% 29.88 in 5.0 mi SSW 3.5 mph - N/A Snow Light Snow
8:15 AM 3.0 °F - -2.4 °F 78% 29.87 in 7.0 mi Calm Calm - N/A Snow Light Snow
8:35 AM 3.4 °F -4.0 °F -2.2 °F 78% 29.87 in 5.0 mi SW 3.5 mph - N/A   Haze
8:55 AM 3.9 °F -5.3 °F -2.2 °F 76% 29.87 in 7.0 mi SW 4.6 mph - N/A   Overcast
9:15 AM 4.3 °F -4.9 °F -2.0 °F 75% 29.87 in 7.0 mi SW 4.6 mph - N/A   Overcast
9:35 AM 4.8 °F -4.3 °F -1.7 °F 75% 29.87 in 7.0 mi WSW 4.6 mph - N/A   Overcast
9:55 AM 5.2 °F -3.8 °F -1.3 °F 75% 29.87 in 7.0 mi WSW 4.6 mph - N/A   Overcast
10:15 AM 5.9 °F -3.0 °F -0.9 °F 73% 29.87 in 7.0 mi WSW 4.6 mph - N/A   Overcast
10:35 AM 6.4 °F -5.2 °F -0.9 °F 72% 29.86 in 7.0 mi West 6.9 mph - N/A   Overcast
10:55 AM 6.8 °F -5.9 °F -1.1 °F 70% 29.86 in 5.0 mi West 8.1 mph - N/A   Haze
11:15 AM 7.2 °F -1.5 °F -0.8 °F 70% 29.85 in 5.0 mi West 4.6 mph - N/A Snow Light Snow
11:35 AM 7.3 °F -1.3 °F -0.0 °F 72% 29.84 in 2.0 mi West 4.6 mph - N/A Snow Light Snow
11:55 AM 7.7 °F -3.7 °F 0.5 °F 72% 29.84 in 1.5 mi WNW 6.9 mph - N/A Snow Light Snow
12:15 PM 7.7 °F -3.7 °F 1.0 °F 74% 29.84 in 1.5 mi WNW 6.9 mph - N/A Snow Light Snow
12:35 PM 7.3 °F -7.1 °F -0.9 °F 69% 29.84 in 3.0 mi NW 10.4 mph - N/A   Haze
12:55 PM 7.2 °F -6.4 °F -0.9 °F 69% 29.84 in 3.0 mi WNW 9.2 mph - N/A   Haze
1:15 PM 7.2 °F -5.4 °F -0.4 °F 71% 29.84 in 2.0 mi WNW 8.1 mph - N/A   Haze
1:35 PM 7.3 °F -7.9 °F -0.9 °F 69% 29.84 in 3.0 mi WNW 11.5 mph - N/A   Haze
1:55 PM 7.7 °F -5.8 °F 0.1 °F 71% 29.84 in 2.5 mi WNW 9.2 mph - N/A   Haze
2:15 PM 7.9 °F -5.5 °F -0.6 °F 68% 29.85 in 4.0 mi NW 9.2 mph - N/A   Haze
2:35 PM 8.2 °F -7.5 °F -0.2 °F 68% 29.86 in 4.0 mi NW 12.7 mph 16.1 mph N/A   Haze
2:55 PM 8.2 °F -6.0 °F 0.1 °F 70% 29.87 in 3.0 mi NW 10.4 mph - N/A Snow Light Snow
3:15 PM 8.1 °F -7.0 °F -4.9 °F 56% 29.88 in 7.0 mi NNW 11.5 mph 16.1 mph N/A   Overcast
3:35 PM 8.4 °F -7.3 °F -5.4 °F 53% 29.90 in 10.0 mi WNW 12.7 mph 19.6 mph N/A   Overcast
3:55 PM 7.7 °F -6.6 °F -4.2 °F 58% 29.91 in 7.0 mi NW 10.4 mph 18.4 mph N/A   Overcast
4:15 PM 6.8 °F -8.6 °F -2.9 °F 64% 29.93 in 3.0 mi WNW 11.5 mph 21.9 mph N/A Snow Light Snow
4:35 PM 5.9 °F -11.2 °F -6.5 °F 57% 29.94 in 7.0 mi NNW 13.8 mph 24.2 mph N/A   Mostly Cloudy
4:55 PM 5.2 °F -11.4 °F -7.1 °F 57% 29.95 in 10.0 mi NNW 12.7 mph 18.4 mph N/A   Scattered Clouds
5:15 PM 5.0 °F -12.3 °F -8.3 °F 54% 29.96 in 10.0 mi NW 13.8 mph - N/A   Scattered Clouds
5:35 PM 4.6 °F -10.4 °F -7.8 °F 57% 29.98 in 10.0 mi NW 10.4 mph - N/A   Overcast
5:55 PM 4.5 °F -10.7 °F -6.5 °F 60% 30.00 in 10.0 mi WNW 10.4 mph - N/A   Overcast
6:15 PM 4.1 °F -11.1 °F -7.2 °F 59% 30.00 in 10.0 mi WNW 10.4 mph 16.1 mph N/A   Mostly Cloudy
6:35 PM 3.9 °F -11.3 °F -8.0 °F 58% 30.00 in 10.0 mi WNW 10.4 mph 17.3 mph N/A   Scattered Clouds
6:55 PM 3.6 °F -8.7 °F -7.1 °F 61% 30.01 in 10.0 mi WNW 6.9 mph - N/A   Mostly Cloudy
7:15 PM 3.2 °F -11.3 °F -7.1 °F 62% 30.01 in 10.0 mi WNW 9.2 mph 17.3 mph N/A   Overcast
7:35 PM 3.2 °F -13.9 °F -7.6 °F 61% 30.01 in 10.0 mi WNW 12.7 mph 16.1 mph N/A   Overcast
7:55 PM 3.2 °F -13.1 °F -7.6 °F 61% 30.02 in 10.0 mi WNW 11.5 mph 17.3 mph N/A   Scattered Clouds
8:15 PM 2.7 °F -13.8 °F -7.6 °F 62% 30.02 in 10.0 mi WNW 11.5 mph 17.3 mph N/A   Scattered Clouds
8:35 PM 2.3 °F -11.4 °F -7.6 °F 63% 30.02 in 10.0 mi WNW 8.1 mph - N/A   Scattered Clouds
8:55 PM 1.9 °F -12.9 °F -7.6 °F 64% 30.03 in 10.0 mi WNW 9.2 mph - N/A   Clear
9:15 PM 1.9 °F -11.8 °F -7.6 °F 64% 30.04 in 10.0 mi WNW 8.1 mph - N/A   Mostly Cloudy
9:35 PM 1.9 °F -13.8 °F -7.6 °F 64% 30.04 in 10.0 mi WNW 10.4 mph - N/A   Scattered Clouds
9:55 PM 1.9 °F -12.9 °F -7.2 °F 65% 30.05 in 10.0 mi WNW 9.2 mph - N/A   Scattered Clouds
10:15 PM 2.5 °F -14.0 °F -6.2 °F 67% 30.05 in 10.0 mi NW 11.5 mph - N/A   Mostly Cloudy
10:35 PM 2.8 °F -13.5 °F -5.1 °F 70% 30.06 in 5.0 mi WNW 11.5 mph - N/A   Haze
10:55 PM 3.0 °F -11.5 °F -4.9 °F 70% 30.07 in 7.0 mi WNW 9.2 mph - N/A   Overcast
11:15 PM 3.2 °F -10.3 °F -4.9 °F 69% 30.08 in 10.0 mi WNW 8.1 mph - N/A   Overcast
11:35 PM 3.2 °F -7.8 °F -4.0 °F 72% 30.10 in 4.0 mi WNW 5.8 mph - N/A   Haze
11:55 PM 3.6 °F -5.7 °F -3.1 °F 74% 30.11 in 2.5 mi West 4.6 mph - N/A   Haze